| time (UTC) | temp F | wind direction | speed knots | gust knots | rain 1hr in | rain 24hr in | rain mn in | humidity % | barometer mb |
| 20260504041505 | 57 | 153 | 0.0 | 0.0 | 0.00 | 0.00 | 0.00 | 70 | 1011.0 |
| 20260504040007 | 59 | 157 | 0.0 | 0.0 | 0.00 | 0.00 | 0.00 | 63 | 1011.2 |
| 20260504034507 | 60 | 158 | 0.0 | 0.0 | 0.00 | 0.00 | 0.00 | 61 | 1012.1 |
| 20260504033003 | 59 | 155 | 4.3 | 7.0 | 0.00 | 0.00 | 0.00 | 62 | 1011.3 |
| 20260504031503 | 59 | 155 | 4.3 | 7.0 | 0.00 | 0.00 | 0.00 | 62 | 1011.4 |
| 20260504030003 | 59 | 156 | 3.5 | 6.1 | 0.00 | 0.00 | 0.00 | 61 | 1011.4 |
| 20260504024505 | 59 | 155 | 4.3 | 7.0 | 0.00 | 0.00 | 0.00 | 61 | 1011.4 |
| 20260504023002 | 60 | 157 | 4.3 | 8.7 | 0.00 | 0.00 | 0.00 | 60 | 1011.4 |
| 20260504021502 | 61 | 155 | 3.5 | 7.8 | 0.00 | 0.00 | 0.00 | 56 | 1011.2 |
| 20260504020001 | 61 | 155 | 4.3 | 6.1 | 0.00 | 0.00 | 0.00 | 57 | 1011.1 |
| 20260504014600 | 61 | 155 | 3.5 | 7.0 | 0.00 | 0.00 | 0.00 | 56 | 1011.0 |
| 20260504013100 | 62 | 155 | 3.5 | 8.7 | 0.00 | 0.00 | 0.00 | 55 | 1011.0 |
| 20260504011559 | 62 | 155 | 4.3 | 7.8 | 0.00 | 0.00 | 0.00 | 54 | 1010.9 |
| 20260504010058 | 63 | 153 | 5.2 | 8.7 | 0.00 | 0.00 | 0.00 | 53 | 1011.0 |
| 20260504004557 | 64 | 155 | 6.1 | 10.4 | 0.00 | 0.00 | 0.00 | 51 | 1011.1 |
| 20260504003055 | 65 | 150 | 6.1 | 10.4 | 0.00 | 0.00 | 0.00 | 49 | 1011.2 |
| 20260504001553 | 66 | 156 | 6.1 | 10.4 | 0.00 | 0.00 | 0.00 | 47 | 1011.4 |
| 20260504000129 | 66 | 155 | 2.6 | 10.4 | 0.00 | 0.00 | 0.00 | 46 | 1011.8 |
| 20260503234552 | 67 | 154 | 7.8 | 13.0 | 0.00 | 0.00 | 0.00 | 45 | 1011.9 |
| 20260503233050 | 67 | 155 | 1.7 | 10.4 | 0.00 | 0.00 | 0.00 | 45 | 1012.0 |
| 20260503231550 | 67 | 152 | 8.7 | 16.5 | 0.00 | 0.00 | 0.00 | 44 | 1011.9 |
| 20260503230053 | 67 | 151 | 10.4 | 21.7 | 0.00 | 0.00 | 0.00 | 46 | 1011.7 |
| 20260503224547 | 67 | 154 | 11.3 | 18.2 | 0.00 | 0.00 | 0.00 | 44 | 1011.7 |
| 20260503223046 | 67 | 157 | 13.9 | 20.0 | 0.00 | 0.00 | 0.00 | 45 | 1011.5 |
| 20260503221544 | 67 | 154 | 14.8 | 22.6 | 0.00 | 0.00 | 0.00 | 44 | 1011.8 |
| 20260503220042 | 67 | 157 | 15.6 | 23.5 | 0.00 | 0.00 | 0.00 | 46 | 1011.8 |
| 20260503214539 | 66 | 155 | 14.8 | 24.3 | 0.00 | 0.00 | 0.00 | 47 | 1011.9 |
| 20260503213037 | 66 | 155 | 18.2 | 24.3 | 0.00 | 0.00 | 0.00 | 46 | 1012.4 |
| 20260503211533 | 66 | 153 | 17.4 | 26.1 | 0.00 | 0.00 | 0.00 | 48 | 1012.6 |
| 20260503210030 | 66 | 153 | 10.4 | 25.2 | 0.00 | 0.00 | 0.00 | 49 | 1013.1 |
| 20260503204528 | 65 | 156 | 13.9 | 26.1 | 0.00 | 0.00 | 0.00 | 51 | 1013.4 |
| 20260503203032 | 65 | 153 | 16.5 | 24.3 | 0.00 | 0.00 | 0.00 | 48 | 1014.2 |
| 20260503201523 | 65 | 155 | 10.4 | 21.7 | 0.00 | 0.00 | 0.00 | 51 | 1014.2 |
| 20260503200024 | 64 | 153 | 9.6 | 21.7 | 0.00 | 0.00 | 0.00 | 49 | 1014.8 |
| 20260503194518 | 65 | 155 | 10.4 | 21.7 | 0.00 | 0.00 | 0.00 | 52 | 1015.3 |
| 20260503193015 | 64 | 148 | 13.9 | 21.7 | 0.00 | 0.00 | 0.00 | 52 | 1015.6 |
| 20260503191512 | 64 | 155 | 11.3 | 19.1 | 0.00 | 0.00 | 0.00 | 50 | 1016.0 |
| 20260503190009 | 63 | 154 | 13.0 | 27.8 | 0.00 | 0.00 | 0.00 | 51 | 1016.1 |
| 20260503184512 | 63 | 156 | 15.6 | 20.9 | 0.00 | 0.00 | 0.00 | 48 | 1016.4 |
| 20260503183005 | 63 | 153 | 13.9 | 22.6 | 0.00 | 0.00 | 0.00 | 49 | 1016.7 |
| 20260503181505 | 63 | 153 | 13.0 | 23.5 | 0.00 | 0.00 | 0.00 | 53 | 1017.1 |
| 20260503180101 | 63 | 155 | 10.4 | 17.4 | 0.00 | 0.00 | 0.00 | 51 | 1017.4 |
| 20260503174557 | 62 | 148 | 12.2 | 20.9 | 0.00 | 0.00 | 0.00 | 52 | 1017.9 |
| 20260503173055 | 61 | 150 | 13.0 | 21.7 | 0.00 | 0.00 | 0.00 | 53 | 1018.3 |
| 20260503171609 | 61 | 154 | 10.4 | 19.1 | 0.00 | 0.00 | 0.00 | 55 | 1018.7 |
| 20260503081507 | 43 | 156 | 2.6 | 4.3 | 0.00 | 0.01 | 0.00 | 81 | 1020.1 |
| 20260503071505 | 43 | 156 | 2.6 | 4.3 | 0.00 | 0.01 | 0.00 | 76 | 1020.0 |
| 20260503054559 | 43 | 158 | 0.0 | 0.0 | 0.00 | 0.01 | 0.00 | 83 | 1020.4 |
| 20260503053049 | 42 | 158 | 0.0 | 0.0 | 0.00 | 0.01 | 0.00 | 85 | 1020.4 |
| 20260503051548 | 42 | 158 | 0.0 | 0.0 | 0.00 | 0.01 | 0.00 | 85 | 1020.4 |
| 20260503050048 | 42 | 159 | 0.0 | 0.0 | 0.00 | 0.01 | 0.00 | 85 | 1020.3 |
| 20260503044551 | 41 | 157 | 0.0 | 0.0 | 0.00 | 0.01 | 0.01 | 87 | 1020.4 |
| 20260503043048 | 41 | 162 | 0.0 | 0.0 | 0.00 | 0.01 | 0.01 | 89 | 1020.4 |